Tiempo cada hora Göksun

Hoy, 1 Diciembre, Martes

Tiempo Temperatura Precipitaciones Viento Presión Humedad
00:00 +5°C° 1.3 mm 1 mps 647 mmHg 95%
01:00 +5°C° 1.3 mm 1 mps 646 mmHg 96%
02:00 +5°C° 1.3 mm 1 mps 646 mmHg 96%
03:00 +5°C° 0.5 mm 1 mps 646 mmHg 96%
04:00 +5°C° 0.5 mm 1 mps 646 mmHg 96%
05:00 +5°C° 0.5 mm 1 mps 646 mmHg 96%
06:00 +5°C° 0.6 mm 1 mps 646 mmHg 96%
07:00 +5°C° 0.6 mm 1 mps 646 mmHg 96%
08:00 +5°C° 0.6 mm 1 mps 646 mmHg 95%
09:00 +5°C° 0.4 mm 1 mps 646 mmHg 94%
10:00 +6°C° 0.4 mm 1 mps 646 mmHg 94%
11:00 +6°C° 0.4 mm 1 mps 646 mmHg 93%
12:00 +6°C° 0.5 mm 1 mps 646 mmHg 94%
13:00 +6°C° 0.5 mm 1 mps 646 mmHg 94%
14:00 +6°C° 0.5 mm 1 mps 645 mmHg 95%
15:00 +5°C° 0.6 mm 1 mps 646 mmHg 95%
16:00 +5°C° 0.6 mm 1 mps 646 mmHg 96%
17:00 +5°C° 0.6 mm 1 mps 646 mmHg 96%
18:00 +5°C° 0.1 mm 1 mps 646 mmHg 96%
19:00 +5°C° 0.1 mm 1 mps 647 mmHg 96%
20:00 +5°C° 0.1 mm 1 mps 647 mmHg 96%
21:00 +5°C° 0.2 mm 1 mps 647 mmHg 96%
22:00 +5°C° 0.2 mm 1 mps 647 mmHg 96%
23:00 +5°C° 0.2 mm 1 mps 647 mmHg 96%

Mañana, 2 Diciembre, Miércoles

Tiempo Temperatura Precipitaciones Viento Presión Humedad
00:00 +5°C° 0.7 mm 1 mps 647 mmHg 96%
01:00 +5°C° 0.7 mm 1 mps 647 mmHg 97%
02:00 +5°C° 0.7 mm 1 mps 647 mmHg 97%
03:00 +5°C° 0.8 mm 1 mps 648 mmHg 97%
04:00 +5°C° 0.8 mm 1 mps 648 mmHg 97%
05:00 +5°C° 0.8 mm 1 mps 648 mmHg 97%
06:00 +5°C° 0.3 mm 1 mps 648 mmHg 96%
07:00 +5°C° 0.3 mm 1 mps 648 mmHg 95%
08:00 +5°C° 0.3 mm 1 mps 649 mmHg 95%
09:00 +6°C° 0.2 mm 1 mps 648 mmHg 93%
10:00 +6°C° 0.2 mm 1 mps 648 mmHg 92%
11:00 +6°C° 0.2 mm 1 mps 648 mmHg 90%
12:00 +7°C° 0.1 mm 1 mps 648 mmHg 89%
13:00 +7°C° 0.1 mm 1 mps 648 mmHg 88%
14:00 +7°C° 0.1 mm 1 mps 648 mmHg 87%
15:00 +7°C° 0 mm 1 mps 648 mmHg 89%
16:00 +6°C° 0 mm 1 mps 648 mmHg 91%
17:00 +6°C° 0 mm 1 mps 648 mmHg 92%
18:00 +6°C° 0 mm 1 mps 648 mmHg 92%
19:00 +5°C° 0 mm 1 mps 648 mmHg 91%
20:00 +5°C° 0 mm 1 mps 649 mmHg 91%
21:00 +5°C° 0 mm 1 mps 649 mmHg 91%
22:00 +5°C° 0 mm 1 mps 649 mmHg 92%
23:00 +4°C° 0 mm 1 mps 649 mmHg 92%

Pasado mañana, 3 Diciembre, Jueves

Tiempo Temperatura Precipitaciones Viento Presión Humedad
00:00 +4°C° 0 mm 1 mps 649 mmHg 92%
01:00 +3°C° 0 mm 1 mps 649 mmHg 92%
02:00 +3°C° 0 mm 1 mps 648 mmHg 93%
03:00 +3°C° 0 mm 1 mps 648 mmHg 92%
04:00 +3°C° 0 mm 1 mps 648 mmHg 92%
05:00 +3°C° 0 mm 1 mps 648 mmHg 91%
06:00 +4°C° 0 mm 1 mps 649 mmHg 88%
07:00 +4°C° 0 mm 1 mps 649 mmHg 86%
08:00 +5°C° 0 mm 1 mps 650 mmHg 83%
09:00 +6°C° 0 mm 1 mps 650 mmHg 77%
10:00 +7°C° 0 mm 1 mps 650 mmHg 72%
11:00 +9°C° 0 mm 1 mps 650 mmHg 67%
12:00 +9°C° 0 mm 1 mps 650 mmHg 65%
13:00 +9°C° 0 mm 1 mps 649 mmHg 63%
14:00 +10°C° 0 mm 1 mps 649 mmHg 61%
15:00 +8°C° 0 mm 1 mps 649 mmHg 68%
16:00 +6°C° 0 mm 1 mps 648 mmHg 76%
17:00 +4°C° 0 mm 0 mps 648 mmHg 83%
18:00 +4°C° 0 mm 0 mps 648 mmHg 84%
19:00 +3°C° 0 mm 0 mps 648 mmHg 85%
20:00 +3°C° 0 mm 0 mps 648 mmHg 86%
21:00 +3°C° 0 mm 0 mps 648 mmHg 86%
22:00 +2°C° 0 mm 0 mps 648 mmHg 86%
23:00 +3°C° 0 mm 1 mps 648 mmHg 87%

4 Diciembre, Viernes

Tiempo Temperatura Precipitaciones Viento Presión Humedad
00:00 +3°C° 0 mm 1 mps 648 mmHg 87%
01:00 +3°C° 0 mm 1 mps 647 mmHg 87%
02:00 +3°C° 0 mm 1 mps 647 mmHg 87%
03:00 +3°C° 0 mm 1 mps 647 mmHg 87%
04:00 +3°C° 0 mm 1 mps 647 mmHg 87%
05:00 +3°C° 0 mm 1 mps 647 mmHg 87%
06:00 +4°C° 0 mm 1 mps 647 mmHg 84%
07:00 +5°C° 0 mm 1 mps 648 mmHg 80%
08:00 +6°C° 0 mm 1 mps 648 mmHg 76%
09:00 +7°C° 0 mm 1 mps 648 mmHg 71%
10:00 +8°C° 0 mm 1 mps 648 mmHg 66%
11:00 +9°C° 0 mm 1 mps 648 mmHg 60%
12:00 +9°C° 0 mm 1 mps 648 mmHg 60%
13:00 +9°C° 0 mm 1 mps 648 mmHg 60%
14:00 +9°C° 0 mm 1 mps 647 mmHg 60%
15:00 +8°C° 0 mm 1 mps 647 mmHg 67%
16:00 +6°C° 0 mm 1 mps 646 mmHg 75%
17:00 +3°C° 0 mm 0 mps 646 mmHg 83%
18:00 +3°C° 0 mm 0 mps 646 mmHg 84%
19:00 +3°C° 0 mm 0 mps 646 mmHg 85%
20:00 +2°C° 0 mm 0 mps 646 mmHg 86%
21:00 +2°C° 0 mm 0 mps 646 mmHg 86%
22:00 +2°C° 0 mm 0 mps 646 mmHg 87%
23:00 +2°C° 0 mm 0 mps 646 mmHg 87%

5 Diciembre, Sábado

Tiempo Temperatura Precipitaciones Viento Presión Humedad
00:00 +2°C° 0 mm 0 mps 646 mmHg 87%
01:00 +2°C° 0 mm 0 mps 646 mmHg 87%
02:00 +2°C° 0 mm 0 mps 646 mmHg 87%
03:00 +3°C° 0 mm 1 mps 646 mmHg 87%
04:00 +2°C° 0 mm 1 mps 646 mmHg 87%
05:00 +2°C° 0 mm 1 mps 646 mmHg 86%
06:00 +3°C° 0 mm 1 mps 646 mmHg 82%
07:00 +4°C° 0 mm 1 mps 647 mmHg 79%
08:00 +5°C° 0 mm 1 mps 647 mmHg 75%
09:00 +7°C° 0 mm 1 mps 648 mmHg 69%
10:00 +8°C° 0 mm 1 mps 648 mmHg 64%
11:00 +8°C° 0 mm 0 mps 648 mmHg 58%
12:00 +8°C° 0 mm 0 mps 647 mmHg 57%
13:00 +8°C° 0 mm 0 mps 647 mmHg 56%
14:00 +10°C° 0 mm 1 mps 647 mmHg 55%
15:00 +7°C° 0 mm 0 mps 646 mmHg 63%
16:00 +5°C° 0 mm 0 mps 646 mmHg 71%
17:00 +3°C° 0 mm 0 mps 645 mmHg 79%
18:00 +4°C° 0 mm 1 mps 645 mmHg 78%
19:00 +4°C° 0 mm 1 mps 646 mmHg 78%
20:00 +4°C° 0 mm 1 mps 646 mmHg 77%
21:00 +4°C° 0 mm 1 mps 646 mmHg 75%
22:00 +4°C° 0 mm 1 mps 646 mmHg 73%
23:00 +4°C° 0 mm 1 mps 646 mmHg 72%

6 Diciembre, Domingo

Tiempo Temperatura Precipitaciones Viento Presión Humedad
00:00 +3°C° 0 mm 1 mps 646 mmHg 70%
01:00 +3°C° 0 mm 1 mps 646 mmHg 69%
02:00 +3°C° 0 mm 1 mps 646 mmHg 67%
03:00 +2°C° 0 mm 2 mps 646 mmHg 66%
04:00 +2°C° 0 mm 2 mps 646 mmHg 65%
05:00 +2°C° 0 mm 2 mps 646 mmHg 64%
06:00 +3°C° 0 mm 2 mps 646 mmHg 61%
07:00 +4°C° 0 mm 2 mps 647 mmHg 58%
08:00 +5°C° 0 mm 2 mps 647 mmHg 56%
09:00 +6°C° 0 mm 2 mps 647 mmHg 50%
10:00 +9°C° 0 mm 1 mps 648 mmHg 44%
11:00 +10°C° 0 mm 1 mps 648 mmHg 39%
12:00 +10°C° 0 mm 1 mps 648 mmHg 38%
13:00 +11°C° 0 mm 1 mps 648 mmHg 37%
14:00 +11°C° 0 mm 1 mps 647 mmHg 37%
15:00 +9°C° 0 mm 1 mps 647 mmHg 45%
16:00 +6°C° 0 mm 1 mps 646 mmHg 53%
17:00 +3°C° 0 mm 0 mps 645 mmHg 62%
18:00 +3°C° 0 mm 0 mps 645 mmHg 61%
19:00 +3°C° 0 mm 0 mps 646 mmHg 60%
20:00 +3°C° 0 mm 0 mps 646 mmHg 59%
21:00 +2°C° 0 mm 0 mps 646 mmHg 59%
22:00 +2°C° 0 mm 0 mps 646 mmHg 60%
23:00 +2°C° 0 mm 0 mps 646 mmHg 60%
Mostrar más

Necesitamos Su Consentimiento

Meteoprog y nuestros Proveedores de Servicios pueden almacenar y acceder a sus datos personales como cookies, identificadores de dispositivo u otras tecnologías similares de su dispositivo y procesar dichos datos para personalizar contenido y anuncios, además de ofrecer funciones de redes sociales y analizar el tráfico.

  • Almacenar y/o acceder a información en su dispositivo

    Se puede almacenar o acceder a cookies, identificadores de dispositivo u otra información de su dispositivo para los fines anteriormente indicados.

  • Anuncios y contenido personalizados, medición de anuncios y contenido, percepciones del público, y desarrollo de productos

    Los anuncios y el contenido pueden personalizarse en base a su perfil. Se pueden añadir más datos para personalizar mejor los anuncios y contenidos. Se puede medir el rendimiento de los anuncios y contenidos. Se puede obtener la percepción sobre el público que ha visto los anuncios y contenidos. Dichos datos pueden usarse para desarrollar o mejorar la experiencia del usuario, sistemas y software.

Al hacer clic en ‘Estoy De Acuerdo’ usted permitirá el uso de las cookies, identificadores de dispositivo, balizas web u otras tecnologías similares indicadas. Su configuración puede cambiarse desde el navegador de su dispositivo.

Para ciertos fines, los intereses legítimos pueden ser considerados por encima del consentimiento. Puede leer más sobre ello en nuestra Política de Privacidad y Cookies.